M I D A S
Marine Information and Data Acquisition System
Tripno 317 of the Zeeleeuw from 2002-04-11 06:35:16 to 2002-04-11 14:34:41
Back to CruiseResearch ActivitiesStationsMapUnderway DataData graphs

EquipmentUnitsComments
TimeDGPSUTC
LatitudeDGPSDM.mWGS84
LongitudeDGPSDM.mWGS84
SpeedMeteo Stationm/sRelative wind speed
DirectionMeteo StationdegRelative wind direction
TemperatureMeteo Stationdeg CelciusAir temperature
PressureMeteo StationPaAtmospheric pressure
HumidityMeteo Station%Relative humidity
Missing or incorrect values are displayed as -999
Metereological data collected by the RV Zeeleeuw from 2002-04-11 06:35:16 to 2002-04-11 14:34:41
                                                                                    Next 1000 lines
Time Latitude Longitude Speed Direction Temperature Pressure Humidity
2002-04-11 06:35:22 51°13.689 2°55.892 2.7 232 5 101130 68
2002-04-11 06:35:27 51°13.689 2°55.889 1.9 272 5 101130 68
2002-04-11 06:35:32 51°13.689 2°55.885 1.4 234 5 101130 68
2002-04-11 06:35:37 51°13.69 2°55.881 1.8 257 5 101130 68
2002-04-11 06:35:42 51°13.69 2°55.876 2.3 216 5 101130 68
2002-04-11 06:35:47 51°13.691 2°55.871 1.4 162 5 101130 68
2002-04-11 06:35:52 51°13.691 2°55.866 2.3 221 5 101130 68
2002-04-11 06:35:57 51°13.691 2°55.86 1.6 212 5 101130 68
2002-04-11 06:36:02 51°13.692 2°55.854 1.4 223 5 101130 68
2002-04-11 06:36:07 51°13.692 2°55.848 1.6 231 5 101130 68
2002-04-11 06:36:12 51°13.692 2°55.841 1.1 252 5 101130 68
2002-04-11 06:36:17 51°13.692 2°55.835 2.3 248 5 101130 68
2002-04-11 06:36:22 51°13.693 2°55.828 1.3 250 5 101130 68
2002-04-11 06:36:27 51°13.693 2°55.822 2.5 222 5 101130 68
2002-04-11 06:36:32 51°13.693 2°55.816 2.5 218 5 101130 68
2002-04-11 06:36:36 51°13.693 2°55.811 1.6 250 5 101130 68
2002-04-11 06:36:40 51°13.693 2°55.806 2.2 272 5 101130 68
2002-04-11 06:36:43 51°13.693 2°55.802 1.4 294 5 101130 67
2002-04-11 06:36:48 51°13.694 2°55.796 1.6 233 5 101130 67
2002-04-11 06:36:52 51°13.694 2°55.791 1.4 132 5 101130 67
2002-04-11 06:36:58 51°13.694 2°55.784 3 226 5 101130 67
2002-04-11 06:37:02 51°13.695 2°55.78 2.7 231 5 101130 67
2002-04-11 06:37:08 51°13.695 2°55.774 3.8 237 5 101130 67
2002-04-11 06:37:12 51°13.695 2°55.77 4.4 248 5 101140 67
2002-04-11 06:37:18 51°13.695 2°55.765 3.4 237 5 101140 67
2002-04-11 06:37:22 51°13.695 2°55.763 5.1 226 5 101130 67
2002-04-11 06:37:28 51°13.696 2°55.762 4.7 210 5 101130 67
2002-04-11 06:37:32 51°13.696 2°55.763 4.7 212 5 101130 67
2002-04-11 06:37:37 51°13.698 2°55.764 4.7 209 5 101130 67
2002-04-11 06:37:42 51°13.699 2°55.765 6.3 207 5 101140 67
2002-04-11 06:37:48 51°13.7 2°55.766 6.5 209 5 101140 67
2002-04-11 06:37:52 51°13.701 2°55.766 3.8 180 5 101130 67
2002-04-11 06:37:57 51°13.702 2°55.767 4.5 188 5 101130 67
2002-04-11 06:38:03 51°13.703 2°55.766 5.6 195 5 101130 67
2002-04-11 06:38:08 51°13.703 2°55.766 4.8 191 5 101130 67
2002-04-11 06:38:12 51°13.703 2°55.764 3 159 5 101130 67
2002-04-11 06:38:18 51°13.702 2°55.763 3.1 174 5 101130 67
2002-04-11 06:38:23 51°13.701 2°55.761 1.9 126 5 101130 67
2002-04-11 06:38:28 51°13.7 2°55.759 2.6 151 5 101130 67
2002-04-11 06:38:32 51°13.699 2°55.757 3 146 5 101130 67
2002-04-11 06:38:38 51°13.697 2°55.755 3.2 153 5 101130 67
2002-04-11 06:38:43 51°13.696 2°55.753 3.5 152 5 101130 67
2002-04-11 06:38:48 51°13.695 2°55.751 4.7 163 5 101130 67
2002-04-11 06:38:54 51°13.695 2°55.75 3.3 166 5 101130 67
2002-04-11 06:38:58 51°13.695 2°55.749 2.6 173 5 101130 67
2002-04-11 06:39:03 51°13.697 2°55.748 2.6 193 5 101130 67
2002-04-11 06:39:09 51°13.7 2°55.747 3.4 143 5 101130 67
2002-04-11 06:39:13 51°13.703 2°55.746 4 147 5 101140 67
2002-04-11 06:39:17 51°13.706 2°55.745 2.2 114 5 101140 67
2002-04-11 06:39:22 51°13.71 2°55.741 2.8 135 5 101130 68
2002-04-11 06:39:27 51°13.715 2°55.738 3.3 126 5 101130 68
2002-04-11 06:39:32 51°13.719 2°55.734 3.3 149 5 101130 68
2002-04-11 06:39:38 51°13.725 2°55.73 2.9 166 5 101130 68
2002-04-11 06:39:42 51°13.728 2°55.727 2.3 153 5 101130 68
2002-04-11 06:39:48 51°13.733 2°55.721 2.1 195 5 101130 68
2002-04-11 06:39:52 51°13.736 2°55.718 2.6 154 5 101130 69
2002-04-11 06:39:57 51°13.741 2°55.714 3.5 183 5 101130 69
2002-04-11 06:40:03 51°13.746 2°55.709 3.5 195 5 101140 68
2002-04-11 06:40:08 51°13.752 2°55.705 2.6 201 5 101140 68
2002-04-11 06:40:13 51°13.757 2°55.701 2.2 141 5 101130 68
2002-04-11 06:40:21 51°13.765 2°55.693 3.6 129 5 101130 68
2002-04-11 06:40:23 51°13.768 2°55.691 2.9 174 5 101130 68
2002-04-11 06:40:29 51°13.775 2°55.684 3.5 150 5 101130 68
2002-04-11 06:40:33 51°13.78 2°55.68 2.5 170 5.1 101130 68
2002-04-11 06:40:39 51°13.788 2°55.673 2.3 199 5.1 101130 68
2002-04-11 06:40:44 51°13.794 2°55.666 4.4 168 5 101130 68
2002-04-11 06:40:49 51°13.801 2°55.66 4.4 146 5 101130 68
2002-04-11 06:40:54 51°13.808 2°55.653 3.1 180 5 101130 68
2002-04-11 06:40:58 51°13.813 2°55.647 3.3 183 5 101130 68
2002-04-11 06:41:04 51°13.822 2°55.64 3.3 181 5 101130 68
2002-04-11 06:41:09 51°13.83 2°55.633 3.4 173 5 101130 68
2002-04-11 06:41:13 51°13.836 2°55.628 4 189 5 101130 68
2002-04-11 06:41:19 51°13.845 2°55.62 4.5 183 5 101130 68
2002-04-11 06:41:23 51°13.851 2°55.615 3.6 167 5 101130 68
2002-04-11 06:41:29 51°13.86 2°55.607 4 167 5 101130 68
2002-04-11 06:41:34 51°13.868 2°55.601 5 171 5 101130 68
2002-04-11 06:41:39 51°13.876 2°55.595 3.4 165 5 101130 68
2002-04-11 06:41:44 51°13.885 2°55.589 2.9 171 5 101130 68
2002-04-11 06:41:50 51°13.895 2°55.583 4 156 5 101130 68
2002-04-11 06:41:54 51°13.901 2°55.578 2.4 167 5 101130 68
2002-04-11 06:42:00 51°13.911 2°55.57 2.1 203 5 101130 68
2002-04-11 06:42:04 51°13.917 2°55.564 3 178 5 101130 68
2002-04-11 06:42:09 51°13.926 2°55.557 4 130 5 101130 68
2002-04-11 06:42:13 51°13.932 2°55.552 4.8 153 5 101130 68
2002-04-11 06:42:19 51°13.942 2°55.544 4.9 143 5 101130 68
2002-04-11 06:42:24 51°13.95 2°55.537 5 157 5 101130 69
2002-04-11 06:42:29 51°13.958 2°55.531 4.9 175 5 101130 69
2002-04-11 06:42:34 51°13.967 2°55.525 4.3 178 5 101130 68
2002-04-11 06:42:39 51°13.975 2°55.519 4.9 160 5 101130 68
2002-04-11 06:42:44 51°13.983 2°55.513 5 141 5 101130 68
2002-04-11 06:42:49 51°13.991 2°55.507 4.3 146 5 101130 68
2002-04-11 06:42:53 51°13.998 2°55.503 4.7 155 5 101130 69
2002-04-11 06:42:59 51°14.007 2°55.496 4.2 164 5 101130 69
2002-04-11 06:43:03 51°14.014 2°55.491 3.9 194 5 101120 68
2002-04-11 06:43:09 51°14.023 2°55.484 3.4 163 5 101120 68
2002-04-11 06:43:14 51°14.031 2°55.479 3.4 158 5 101130 68
2002-04-11 06:43:18 51°14.037 2°55.475 3.1 161 5 101130 68
2002-04-11 06:43:24 51°14.046 2°55.468 3.2 160 5.1 101130 68
2002-04-11 06:43:29 51°14.054 2°55.463 3.1 170 5.1 101130 68
2002-04-11 06:43:33 51°14.06 2°55.458 2.6 186 5 101130 68
2002-04-11 06:43:39 51°14.07 2°55.452 3.3 174 5 101130 68
2002-04-11 06:43:44 51°14.079 2°55.446 3.1 186 5 101130 68
2002-04-11 06:43:49 51°14.087 2°55.439 3.9 186 5 101130 68
2002-04-11 06:43:53 51°14.094 2°55.434 3.7 188 5.1 101130 68
2002-04-11 06:43:58 51°14.103 2°55.428 5.9 176 5.1 101130 68
2002-04-11 06:44:03 51°14.112 2°55.421 6 180 5.1 101130 68
2002-04-11 06:44:09 51°14.123 2°55.413 4.2 176 5.1 101130 68
2002-04-11 06:44:13 51°14.131 2°55.408 3.9 185 5.1 101130 68
2002-04-11 06:44:19 51°14.144 2°55.4 4.6 183 5.1 101130 68
2002-04-11 06:44:24 51°14.154 2°55.391 5.8 169 5.1 101130 68
2002-04-11 06:44:29 51°14.165 2°55.383 6.1 169 5.1 101130 68
2002-04-11 06:44:34 51°14.175 2°55.373 4.4 175 5.1 101120 68
2002-04-11 06:44:39 51°14.185 2°55.363 4.6 187 5.1 101120 68
2002-04-11 06:44:44 51°14.196 2°55.353 3.9 161 5.1 101120 68
2002-04-11 06:44:49 51°14.206 2°55.342 3.8 185 5.1 101120 68
2002-04-11 06:44:54 51°14.216 2°55.33 5.3 174 5.1 101120 68
2002-04-11 06:44:59 51°14.226 2°55.317 6.3 166 5.1 101120 68
2002-04-11 06:45:04 51°14.235 2°55.304 5 169 5.1 101120 67
2002-04-11 06:45:08 51°14.242 2°55.293 6.7 156 5.1 101120 67
2002-04-11 06:45:14 51°14.253 2°55.276 4.4 157 5.1 101120 67
2002-04-11 06:45:19 51°14.262 2°55.261 3.7 183 5.1 101120 67
2002-04-11 06:45:23 51°14.268 2°55.249 3.4 187 5.1 101120 67
2002-04-11 06:45:29 51°14.278 2°55.231 2.5 151 5.1 101120 67
2002-04-11 06:45:33 51°14.285 2°55.218 4.2 166 5.1 101120 68
2002-04-11 06:45:39 51°14.294 2°55.199 3.9 164 5.1 101120 68
2002-04-11 06:45:44 51°14.302 2°55.183 5.3 152 5.1 101120 68
2002-04-11 06:45:49 51°14.31 2°55.166 3.9 124 5.1 101120 68
2002-04-11 06:45:53 51°14.316 2°55.153 3.8 138 5.1 101120 68
2002-04-11 06:45:59 51°14.326 2°55.133 3.1 198 5.1 101120 68
2002-04-11 06:46:04 51°14.334 2°55.117 3.4 182 5.1 101130 68
2002-04-11 06:46:09 51°14.342 2°55.099 5.5 183 5.1 101130 68
2002-04-11 06:46:14 51°14.35 2°55.082 5.3 150 5.1 101120 68
2002-04-11 06:46:19 51°14.358 2°55.064 3.2 175 5.1 101120 68
2002-04-11 06:46:23 51°14.365 2°55.05 4.2 182 5.1 101120 68
2002-04-11 06:46:29 51°14.376 2°55.03 5.2 162 5.1 101120 68
2002-04-11 06:46:34 51°14.387 2°55.015 6.7 163 5.2 101130 69
2002-04-11 06:46:38 51°14.396 2°55.003 6.1 173 5.2 101130 69
2002-04-11 06:46:43 51°14.408 2°54.989 8.2 169 5.2 101130 69
2002-04-11 06:46:49 51°14.422 2°54.973 7.9 168 5.2 101130 69
2002-04-11 06:46:53 51°14.431 2°54.963 7.7 163 5.2 101130 69
2002-04-11 06:46:59 51°14.446 2°54.948 6.6 170 5.2 101130 69
2002-04-11 06:47:04 51°14.459 2°54.934 6 174 5.2 101120 70
2002-04-11 06:47:09 51°14.472 2°54.921 6.6 175 5.2 101120 70
2002-04-11 06:47:13 51°14.483 2°54.909 6.8 178 5.3 101110 69
2002-04-11 06:47:19 51°14.499 2°54.891 7.3 176 5.3 101110 69
2002-04-11 06:47:24 51°14.513 2°54.876 9 173 5.3 101120 70
2002-04-11 06:47:29 51°14.527 2°54.861 8.3 175 5.3 101120 70
2002-04-11 06:47:33 51°14.538 2°54.849 9.6 175 5.3 101110 70
2002-04-11 06:47:39 51°14.555 2°54.831 9.1 172 5.3 101110 70
2002-04-11 06:47:44 51°14.568 2°54.816 10.5 169 5.3 101120 69
2002-04-11 06:47:49 51°14.583 2°54.801 9.2 177 5.3 101120 69
2002-04-11 06:47:54 51°14.596 2°54.786 9 177 5.3 101110 68
2002-04-11 06:47:58 51°14.608 2°54.775 10.1 171 5.3 101110 68
2002-04-11 06:48:03 51°14.622 2°54.76 8.3 170 5.3 101110 68
2002-04-11 06:48:09 51°14.639 2°54.742 9.3 170 5.3 101110 68
2002-04-11 06:48:14 51°14.653 2°54.727 7.4 179 5.3 101110 69
2002-04-11 06:48:19 51°14.668 2°54.714 8.7 176 5.3 101110 69
2002-04-11 06:48:24 51°14.682 2°54.698 9.5 175 5.3 101110 69
2002-04-11 06:48:29 51°14.697 2°54.684 8 173 5.3 101110 69
2002-04-11 06:48:34 51°14.711 2°54.669 9 175 5.4 101110 70
2002-04-11 06:48:38 51°14.722 2°54.657 10.6 167 5.4 101110 70
2002-04-11 06:48:43 51°14.737 2°54.642 9.7 169 5.4 101110 70
2002-04-11 06:48:49 51°14.754 2°54.623 8.2 173 5.4 101110 70
2002-04-11 06:48:54 51°14.769 2°54.608 8.1 177 5.4 101110 70
2002-04-11 06:48:59 51°14.784 2°54.593 8.6 175 5.4 101110 70
2002-04-11 06:49:04 51°14.798 2°54.578 8 176 5.4 101110 68
2002-04-11 06:49:09 51°14.813 2°54.563 8.1 177 5.4 101110 68
2002-04-11 06:49:13 51°14.825 2°54.552 7.3 179 5.5 101110 69
2002-04-11 06:49:19 51°14.843 2°54.533 8.6 176 5.5 101110 69
2002-04-11 06:49:24 51°14.858 2°54.517 8.4 175 5.5 101110 68
2002-04-11 06:49:29 51°14.873 2°54.502 9.2 175 5.5 101110 68
2002-04-11 06:49:34 51°14.888 2°54.486 7.8 171 5.5 101110 69
2002-04-11 06:49:39 51°14.903 2°54.471 10.1 170 5.5 101110 69
2002-04-11 06:49:44 51°14.917 2°54.456 9.3 174 5.5 101120 69
2002-04-11 06:49:49 51°14.932 2°54.441 9.5 170 5.5 101120 69
2002-04-11 06:49:54 51°14.947 2°54.426 9.8 166 5.5 101120 70
2002-04-11 06:49:59 51°14.961 2°54.411 9.6 163 5.5 101120 70
2002-04-11 06:50:03 51°14.973 2°54.399 8 180 5.5 101110 71
2002-04-11 06:50:09 51°14.99 2°54.382 8.3 178 5.5 101110 71
2002-04-11 06:50:14 51°15.005 2°54.367 8.6 180 5.5 101110 68
2002-04-11 06:50:19 51°15.019 2°54.352 11 174 5.5 101110 68
2002-04-11 06:50:24 51°15.033 2°54.338 10.4 173 5.6 101110 70
2002-04-11 06:50:29 51°15.047 2°54.323 9.8 169 5.6 101110 70
2002-04-11 06:50:33 51°15.059 2°54.311 10.3 163 5.6 101110 70
2002-04-11 06:50:38 51°15.073 2°54.295 7.9 169 5.6 101110 70
2002-04-11 06:50:44 51°15.089 2°54.276 8 171 5.6 101110 69
2002-04-11 06:50:49 51°15.103 2°54.261 9.3 167 5.6 101110 69
2002-04-11 06:50:54 51°15.117 2°54.245 10 164 5.6 101110 67
2002-04-11 06:50:59 51°15.132 2°54.229 9.1 164 5.6 101110 67
2002-04-11 06:51:03 51°15.143 2°54.215 9.1 176 5.6 101110 68
2002-04-11 06:51:09 51°15.16 2°54.195 8.6 175 5.6 101110 68
2002-04-11 06:51:13 51°15.171 2°54.182 9 174 5.6 101120 68
2002-04-11 06:51:18 51°15.185 2°54.167 10.9 171 5.6 101120 68
2002-04-11 06:51:24 51°15.202 2°54.147 10.3 174 5.6 101110 68
2002-04-11 06:51:29 51°15.217 2°54.131 10.5 168 5.6 101110 68
2002-04-11 06:51:33 51°15.229 2°54.119 10.3 175 5.6 101120 69
2002-04-11 06:51:38 51°15.243 2°54.102 9.4 175 5.6 101120 69
2002-04-11 06:51:43 51°15.258 2°54.086 9.3 170 5.7 101100 68
2002-04-11 06:51:49 51°15.276 2°54.067 10.1 168 5.7 101100 68
2002-04-11 06:51:53 51°15.287 2°54.053 9.5 171 5.7 101100 69
2002-04-11 06:51:59 51°15.305 2°54.034 9.2 171 5.7 101100 69
2002-04-11 06:52:04 51°15.319 2°54.016 10.6 165 5.7 101110 69
2002-04-11 06:52:09 51°15.334 2°54 11.2 169 5.7 101110 69
2002-04-11 06:52:14 51°15.348 2°53.982 9.9 165 5.7 101110 69
2002-04-11 06:52:19 51°15.363 2°53.965 10 173 5.7 101110 69
2002-04-11 06:52:24 51°15.377 2°53.947 10.5 171 5.8 101110 70
2002-04-11 06:52:29 51°15.392 2°53.931 8.2 180 5.8 101110 70
2002-04-11 06:52:34 51°15.406 2°53.913 9.3 176 5.7 101110 68
2002-04-11 06:52:39 51°15.421 2°53.896 11.2 175 5.7 101110 68
2002-04-11 06:52:44 51°15.435 2°53.877 10.8 171 5.8 101110 68
2002-04-11 06:52:49 51°15.45 2°53.862 9 176 5.8 101110 68
2002-04-11 06:52:53 51°15.462 2°53.848 10.5 173 5.8 101100 69
2002-04-11 06:52:59 51°15.481 2°53.829 8.4 178 5.8 101100 69
2002-04-11 06:53:04 51°15.496 2°53.813 9.7 172 5.8 101110 68
2002-04-11 06:53:09 51°15.511 2°53.797 9.7 176 5.8 101110 68
2002-04-11 06:53:13 51°15.523 2°53.784 9.9 177 5.8 101110 69
2002-04-11 06:53:19 51°15.542 2°53.764 10.5 170 5.8 101110 69
2002-04-11 06:53:24 51°15.557 2°53.746 9.3 173 5.8 101100 67
2002-04-11 06:53:29 51°15.571 2°53.73 9.3 175 5.8 101100 67
2002-04-11 06:53:33 51°15.583 2°53.716 8.7 177 5.8 101110 70
2002-04-11 06:53:39 51°15.601 2°53.695 10.7 173 5.8 101110 70
2002-04-11 06:53:43 51°15.613 2°53.682 9.7 175 5.9 101110 70
2002-04-11 06:53:49 51°15.631 2°53.661 9.9 171 5.9 101110 70
2002-04-11 06:53:53 51°15.643 2°53.647 9.4 171 5.9 101110 69
2002-04-11 06:53:58 51°15.658 2°53.629 9.7 175 5.9 101110 69
2002-04-11 06:54:04 51°15.676 2°53.609 8.5 175 5.9 101100 69
2002-04-11 06:54:09 51°15.69 2°53.59 10.9 172 5.9 101100 69
2002-04-11 06:54:13 51°15.703 2°53.577 9.5 171 5.9 101100 66
2002-04-11 06:54:19 51°15.72 2°53.555 9.7 165 5.9 101100 66
2002-04-11 06:54:24 51°15.735 2°53.538 7.8 180 5.9 101110 67
2002-04-11 06:54:29 51°15.75 2°53.52 11.2 177 5.9 101110 67
2002-04-11 06:54:33 51°15.762 2°53.507 8.4 176 5.9 101100 66
2002-04-11 06:54:38 51°15.776 2°53.487 8.5 171 5.9 101100 66
2002-04-11 06:54:43 51°15.792 2°53.471 8.9 173 5.9 101110 67
2002-04-11 06:54:49 51°15.809 2°53.449 11.2 165 5.9 101110 67
2002-04-11 06:54:54 51°15.824 2°53.433 8.2 172 5.9 101110 69
2002-04-11 06:54:58 51°15.836 2°53.418 9.5 174 5.9 101110 69
2002-04-11 06:55:04 51°15.854 2°53.399 10.4 173 5.9 101110 68
2002-04-11 06:55:09 51°15.868 2°53.38 9.4 172 5.9 101110 68
2002-04-11 06:55:13 51°15.881 2°53.368 9.3 175 5.9 101110 67
2002-04-11 06:55:19 51°15.899 2°53.347 10.2 169 5.9 101110 67
2002-04-11 06:55:24 51°15.914 2°53.331 9.3 171 5.9 101110 68
2002-04-11 06:55:29 51°15.929 2°53.314 10.5 170 5.9 101110 68
2002-04-11 06:55:33 51°15.941 2°53.301 9.9 163 6 101100 68
2002-04-11 06:55:39 51°15.96 2°53.282 8.4 169 6 101100 68
2002-04-11 06:55:44 51°15.974 2°53.265 9.2 175 6 101110 68
2002-04-11 06:55:49 51°15.989 2°53.249 8.7 173 6 101110 68
2002-04-11 06:55:53 51°16.001 2°53.235 10.8 167 6 101110 67
2002-04-11 06:55:59 51°16.019 2°53.217 9.3 174 6 101110 67
2002-04-11 06:56:04 51°16.033 2°53.199 11 174 6 101110 69
2002-04-11 06:56:09 51°16.048 2°53.185 10.2 175 6 101110 69
2002-04-11 06:56:14 51°16.063 2°53.167 11.6 178 6.1 101110 70
2002-04-11 06:56:19 51°16.078 2°53.153 9.2 177 6.1 101110 70
2002-04-11 06:56:24 51°16.093 2°53.137 10.2 173 6.1 101120 68
2002-04-11 06:56:29 51°16.109 2°53.123 9.4 176 6.1 101120 68
2002-04-11 06:56:33 51°16.121 2°53.111 10.2 175 6.1 101110 69
2002-04-11 06:56:38 51°16.136 2°53.096 11 173 6.1 101110 69
2002-04-11 06:56:44 51°16.155 2°53.079 11.3 172 6.1 101110 68
2002-04-11 06:56:49 51°16.17 2°53.065 12.3 168 6.1 101110 68
2002-04-11 06:56:54 51°16.185 2°53.05 10.1 172 6.1 101110 67
2002-04-11 06:56:59 51°16.2 2°53.035 11 165 6.1 101110 67
2002-04-11 06:57:04 51°16.216 2°53.021 9.6 171 6.1 101100 67
2002-04-11 06:57:09 51°16.231 2°53.004 12.1 168 6.1 101100 67
2002-04-11 06:57:13 51°16.244 2°52.995 7.9 183 6.1 101100 67
2002-04-11 06:57:19 51°16.262 2°52.975 10.2 171 6.1 101100 67
2002-04-11 06:57:24 51°16.277 2°52.962 10.2 175 6.1 101100 66
2002-04-11 06:57:29 51°16.292 2°52.944 11.7 172 6.1 101100 66
2002-04-11 06:57:33 51°16.304 2°52.934 8.8 164 6.2 101110 68
2002-04-11 06:57:39 51°16.322 2°52.915 11.1 174 6.2 101110 68
2002-04-11 06:57:44 51°16.338 2°52.901 10.4 169 6.2 101100 68
2002-04-11 06:57:49 51°16.353 2°52.886 10.7 167 6.2 101100 68
2002-04-11 06:57:54 51°16.369 2°52.871 12.1 171 6.2 101100 69
2002-04-11 06:57:59 51°16.384 2°52.856 12 172 6.2 101100 69
2002-04-11 06:58:04 51°16.399 2°52.839 13 170 6.3 101100 70
2002-04-11 06:58:09 51°16.415 2°52.825 11.4 171 6.3 101100 70
2002-04-11 06:58:14 51°16.43 2°52.809 13 171 6.3 101110 70
2002-04-11 06:58:19 51°16.445 2°52.795 12.5 169 6.3 101110 70
2002-04-11 06:58:24 51°16.46 2°52.78 11.2 171 6.3 101110 68
2002-04-11 06:58:29 51°16.476 2°52.766 10.7 170 6.3 101110 68
2002-04-11 06:58:34 51°16.491 2°52.751 12.6 168 6.3 101100 69
2002-04-11 06:58:39 51°16.507 2°52.738 10.7 172 6.3 101100 69
2002-04-11 06:58:43 51°16.519 2°52.727 11.8 166 6.3 101110 68
2002-04-11 06:58:48 51°16.535 2°52.714 12.7 169 6.3 101110 68
2002-04-11 06:58:54 51°16.554 2°52.698 12.5 166 6.3 101110 68
2002-04-11 06:58:59 51°16.57 2°52.687 10.6 174 6.3 101110 68
2002-04-11 06:59:04 51°16.586 2°52.674 10.9 174 6.4 101100 70
2002-04-11 06:59:09 51°16.601 2°52.662 10.2 167 6.4 101100 70
2002-04-11 06:59:13 51°16.614 2°52.653 11.4 172 6.4 101090 67
2002-04-11 06:59:19 51°16.633 2°52.638 11.8 168 6.4 101090 67
2002-04-11 06:59:24 51°16.649 2°52.627 10 174 6.4 101100 68
2002-04-11 06:59:29 51°16.665 2°52.614 11.6 166 6.4 101100 68
2002-04-11 06:59:33 51°16.677 2°52.606 9.4 172 6.4 101100 69
2002-04-11 06:59:38 51°16.693 2°52.593 10 172 6.4 101100 69
2002-04-11 06:59:43 51°16.709 2°52.584 9.4 177 6.4 101100 68
2002-04-11 06:59:49 51°16.728 2°52.569 11.6 170 6.4 101100 68
2002-04-11 06:59:54 51°16.744 2°52.56 10.5 178 6.4 101120 67
2002-04-11 06:59:59 51°16.759 2°52.547 12.2 173 6.4 101120 67
2002-04-11 07:00:04 51°16.775 2°52.538 12.4 174 6.4 101100 69
2002-04-11 07:00:09 51°16.79 2°52.527 12.7 174 6.4 101100 69
2002-04-11 07:00:14 51°16.806 2°52.519 13.1 171 6.4 101100 68
2002-04-11 07:00:18 51°16.818 2°52.51 14.1 169 6.4 101100 68
2002-04-11 07:00:24 51°16.838 2°52.499 11.5 174 6.4 101100 67
2002-04-11 07:00:29 51°16.854 2°52.488 13.1 174 6.4 101100 67
2002-04-11 07:00:33 51°16.867 2°52.483 11.1 175 6.4 101100 66
2002-04-11 07:00:39 51°16.886 2°52.471 11.4 170 6.4 101100 66
2002-04-11 07:00:44 51°16.902 2°52.463 10.2 177 6.4 101090 67
2002-04-11 07:00:49 51°16.918 2°52.452 11.7 171 6.4 101090 67
2002-04-11 07:00:53 51°16.932 2°52.446 12.1 168 6.4 101110 66
2002-04-11 07:00:59 51°16.951 2°52.434 10.4 177 6.4 101110 66
2002-04-11 07:01:04 51°16.967 2°52.427 12.8 174 6.4 101100 68
2002-04-11 07:01:09 51°16.983 2°52.417 10.2 173 6.4 101100 68
2002-04-11 07:01:13 51°16.996 2°52.41 10 174 6.4 101100 68
2002-04-11 07:01:19 51°17.015 2°52.399 11.5 174 6.4 101100 68
2002-04-11 07:01:24 51°17.031 2°52.39 11.1 170 6.5 101100 68
2002-04-11 07:01:29 51°17.047 2°52.381 10.6 175 6.5 101100 68
2002-04-11 07:01:34 51°17.063 2°52.371 10.2 176 6.5 101090 69
2002-04-11 07:01:39 51°17.08 2°52.362 10.5 177 6.5 101090 69
2002-04-11 07:01:43 51°17.092 2°52.353 11.3 175 6.5 101100 69
2002-04-11 07:01:49 51°17.112 2°52.342 9.2 177 6.5 101100 69
2002-04-11 07:01:54 51°17.128 2°52.331 10.8 177 6.5 101100 70
2002-04-11 07:01:59 51°17.144 2°52.323 8.8 185 6.5 101100 70
2002-04-11 07:02:04 51°17.16 2°52.313 11.6 179 6.5 101090 69
2002-04-11 07:02:09 51°17.177 2°52.305 9.9 178 6.5 101090 69
2002-04-11 07:02:13 51°17.19 2°52.297 9.3 182 6.6 101100 69
2002-04-11 07:02:18 51°17.206 2°52.289 11 183 6.6 101100 69
2002-04-11 07:02:24 51°17.226 2°52.28 11.6 184 6.6 101100 70
2002-04-11 07:02:29 51°17.243 2°52.274 12.3 190 6.6 101100 70
2002-04-11 07:02:33 51°17.256 2°52.27 12.1 184 6.6 101090 69
2002-04-11 07:02:39 51°17.277 2°52.266 11.8 185 6.6 101090 69
2002-04-11 07:02:43 51°17.29 2°52.263 13.1 192 6.6 101120 69
2002-04-11 07:02:49 51°17.31 2°52.261 10.9 186 6.6 101120 69
2002-04-11 07:02:54 51°17.326 2°52.26 11.7 194 6.6 101090 69
2002-04-11 07:02:59 51°17.343 2°52.259 13.2 191 6.6 101090 69
2002-04-11 07:03:04 51°17.36 2°52.26 13.4 190 6.6 101100 69
2002-04-11 07:03:09 51°17.377 2°52.258 14 188 6.6 101100 69
2002-04-11 07:03:13 51°17.39 2°52.259 12.3 191 6.6 101090 67
2002-04-11 07:03:19 51°17.409 2°52.257 11.9 189 6.6 101090 67
2002-04-11 07:03:24 51°17.426 2°52.259 9.9 189 6.6 101110 68
2002-04-11 07:03:29 51°17.443 2°52.256 11 191 6.6 101110 68
2002-04-11 07:03:34 51°17.46 2°52.257 11.4 192 6.6 101100 67
2002-04-11 07:03:39 51°17.476 2°52.255 13.7 190 6.6 101100 67
2002-04-11 07:03:43 51°17.489 2°52.255 12.1 191 6.6 101100 67
2002-04-11 07:03:49 51°17.51 2°52.253 12.5 188 6.6 101100 67
2002-04-11 07:03:53 51°17.523 2°52.253 11.6 186 6.6 101100 69
2002-04-11 07:03:59 51°17.543 2°52.251 11.1 184 6.6 101100 69
2002-04-11 07:04:04 51°17.559 2°52.25 10 184 6.6 101100 69
2002-04-11 07:04:09 51°17.576 2°52.248 11.9 192 6.6 101100 69
2002-04-11 07:04:13 51°17.589 2°52.247 13.6 187 6.6 101100 67
2002-04-11 07:04:18 51°17.606 2°52.247 12 182 6.6 101100 67
2002-04-11 07:04:23 51°17.622 2°52.244 10.4 183 6.6 101090 68
2002-04-11 07:04:29 51°17.642 2°52.244 11.6 191 6.6 101090 68
2002-04-11 07:04:34 51°17.659 2°52.242 11.5 179 6.6 101100 70
2002-04-11 07:04:39 51°17.676 2°52.242 9.5 190 6.6 101100 70
2002-04-11 07:04:43 51°17.689 2°52.239 9.9 181 6.6 101100 68
2002-04-11 07:04:49 51°17.709 2°52.24 10.4 186 6.6 101100 68
2002-04-11 07:04:53 51°17.722 2°52.237 13 187 6.6 101090 70
2002-04-11 07:04:59 51°17.742 2°52.238 11.9 190 6.6 101090 70
2002-04-11 07:05:03 51°17.756 2°52.235 12.9 186 6.6 101110 69
2002-04-11 07:05:09 51°17.776 2°52.236 13 192 6.6 101110 69
2002-04-11 07:05:14 51°17.792 2°52.233 11 185 6.6 101100 70
2002-04-11 07:05:19 51°17.809 2°52.233 11.6 191 6.6 101100 70
2002-04-11 07:05:24 51°17.826 2°52.23 13.7 187 6.7 101100 70
2002-04-11 07:05:29 51°17.842 2°52.23 12.3 191 6.7 101100 70
2002-04-11 07:05:33 51°17.856 2°52.227 12.8 187 6.6 101100 67
2002-04-11 07:05:39 51°17.875 2°52.227 12.2 191 6.6 101100 67
2002-04-11 07:05:44 51°17.892 2°52.224 10 182 6.6 101100 69
2002-04-11 07:05:49 51°17.909 2°52.225 10.3 190 6.6 101100 69
2002-04-11 07:05:53 51°17.922 2°52.222 10.6 182 6.6 101110 67
2002-04-11 07:05:59 51°17.942 2°52.222 10.2 183 6.6 101110 67
2002-04-11 07:06:04 51°17.959 2°52.22 11.3 183 6.6 101100 67
2002-04-11 07:06:09 51°17.975 2°52.221 11.6 193 6.6 101100 67
2002-04-11 07:06:13 51°17.989 2°52.219 12.7 189 6.6 101110 68
2002-04-11 07:06:19 51°18.009 2°52.22 12.5 186 6.6 101110 68
2002-04-11 07:06:24 51°18.025 2°52.219 14.2 193 6.6 101100 69
2002-04-11 07:06:29 51°18.042 2°52.221 13 195 6.6 101100 69
2002-04-11 07:06:34 51°18.059 2°52.222 15 198 6.6 101090 69
2002-04-11 07:06:38 51°18.072 2°52.227 15.6 200 6.6 101090 69
2002-04-11 07:06:43 51°18.088 2°52.233 15.9 201 6.6 101090 68
2002-04-11 07:06:49 51°18.106 2°52.244 14.8 205 6.6 101090 68
2002-04-11 07:06:53 51°18.118 2°52.253 15.5 209 6.6 101110 67
2002-04-11 07:06:58 51°18.132 2°52.265 15.9 211 6.6 101110 67
2002-04-11 07:07:04 51°18.148 2°52.283 16.7 213 6.6 101100 67
2002-04-11 07:07:09 51°18.16 2°52.299 15.7 218 6.6 101100 67
2002-04-11 07:07:14 51°18.171 2°52.317 17.9 219 6.6 101110 67
2002-04-11 07:07:18 51°18.18 2°52.334 16.2 222 6.6 101110 67
2002-04-11 07:07:24 51°18.191 2°52.359 17.7 225 6.6 101110 67
2002-04-11 07:07:29 51°18.199 2°52.381 17.9 227 6.6 101110 67
2002-04-11 07:07:33 51°18.204 2°52.4 17.9 226 6.6 101110 68
2002-04-11 07:07:39 51°18.213 2°52.428 18.6 225 6.6 101110 68
2002-04-11 07:07:43 51°18.219 2°52.447 16.3 224 6.6 101130 68
2002-04-11 07:07:49 51°18.228 2°52.474 17.2 223 6.6 101130 68
2002-04-11 07:07:53 51°18.235 2°52.491 17.6 220 6.6 101120 67
2002-04-11 07:07:59 51°18.245 2°52.518 17.8 225 6.6 101120 67
2002-04-11 07:08:04 51°18.254 2°52.54 17 221 6.6 101120 67
2002-04-11 07:08:09 51°18.263 2°52.562 16.2 219 6.6 101120 67
2002-04-11 07:08:14 51°18.272 2°52.584 17.3 220 6.6 101110 67
2002-04-11 07:08:19 51°18.281 2°52.606 17.5 221 6.6 101110 67
2002-04-11 07:08:24 51°18.29 2°52.627 16.3 217 6.6 101120 68
2002-04-11 07:08:29 51°18.299 2°52.65 16.7 220 6.6 101120 68
2002-04-11 07:08:34 51°18.308 2°52.671 17.1 220 6.7 101120 68
2002-04-11 07:08:39 51°18.317 2°52.693 16.9 218 6.7 101120 68
2002-04-11 07:08:44 51°18.326 2°52.714 16.8 219 6.7 101120 68
2002-04-11 07:08:49 51°18.335 2°52.736 16.1 215 6.7 101120 68
2002-04-11 07:08:54 51°18.344 2°52.757 16.7 220 6.7 101130 67
2002-04-11 07:08:59 51°18.353 2°52.779 16.1 135 6.7 101130 67
2002-04-11 07:09:03 51°18.36 2°52.796 16.2 224 6.7 101120 67
2002-04-11 07:09:09 51°18.371 2°52.822 16.6 221 6.7 101120 67
2002-04-11 07:09:13 51°18.378 2°52.84 15.9 221 6.7 101120 68
2002-04-11 07:09:19 51°18.388 2°52.866 16.2 217 6.7 101120 68
2002-04-11 07:09:24 51°18.397 2°52.888 16 224 6.7 101120 69
2002-04-11 07:09:29 51°18.406 2°52.91 15 226 6.7 101120 69
2002-04-11 07:09:34 51°18.415 2°52.932 16.7 223 6.7 101120 69
2002-04-11 07:09:39 51°18.424 2°52.953 16.5 226 6.7 101120 69
2002-04-11 07:09:43 51°18.431 2°52.971 17 229 6.7 101120 69
2002-04-11 07:09:49 51°18.441 2°52.997 17.8 224 6.7 101120 69
2002-04-11 07:09:54 51°18.45 2°53.02 15.9 225 6.8 101120 70
2002-04-11 07:09:59 51°18.459 2°53.041 17.3 227 6.8 101120 70
2002-04-11 07:10:03 51°18.466 2°53.058 14.2 225 6.8 101140 69
2002-04-11 07:10:09 51°18.476 2°53.085 14.2 224 6.8 101140 69
2002-04-11 07:10:13 51°18.483 2°53.103 16.9 224 6.8 101120 68
2002-04-11 07:10:19 51°18.493 2°53.129 17.6 226 6.8 101120 68
2002-04-11 07:10:24 51°18.502 2°53.151 16.8 224 6.8 101120 70
2002-04-11 07:10:29 51°18.51 2°53.174 17.5 223 6.8 101120 70
2002-04-11 07:10:34 51°18.519 2°53.196 18.9 224 6.8 101120 70
2002-04-11 07:10:38 51°18.526 2°53.213 16.5 224 6.8 101120 70
2002-04-11 07:10:43 51°18.535 2°53.236 18 225 6.8 101130 69
2002-04-11 07:10:49 51°18.545 2°53.262 17.5 223 6.8 101130 69
2002-04-11 07:10:54 51°18.554 2°53.284 17.2 224 6.8 101130 68
2002-04-11 07:10:59 51°18.563 2°53.306 17.8 226 6.8 101130 68
2002-04-11 07:11:04 51°18.572 2°53.328 17.9 222 6.8 101130 69
2002-04-11 07:11:09 51°18.581 2°53.35 16.5 224 6.8 101130 69
2002-04-11 07:11:13 51°18.588 2°53.367 15.4 224 6.8 101110 68
2002-04-11 07:11:19 51°18.598 2°53.394 16.9 226 6.8 101110 68
2002-04-11 07:11:24 51°18.608 2°53.415 16.7 221 6.8 101120 67
2002-04-11 07:11:29 51°18.616 2°53.438 16.3 226 6.8 101120 67
2002-04-11 07:11:34 51°18.625 2°53.459 18.6 222 6.8 101140 68
2002-04-11 07:11:39 51°18.633 2°53.482 18.5 226 6.8 101140 68
2002-04-11 07:11:44 51°18.644 2°53.503 15.5 220 6.8 101130 70
2002-04-11 07:11:49 51°18.652 2°53.526 17.8 225 6.8 101130 70
2002-04-11 07:11:54 51°18.662 2°53.547 17.9 221 6.8 101130 68
2002-04-11 07:11:59 51°18.67 2°53.57 17.2 225 6.8 101130 68
2002-04-11 07:12:04 51°18.68 2°53.591 18.8 219 6.8 101110 68
2002-04-11 07:12:09 51°18.687 2°53.614 17.1 220 6.8 101110 68
2002-04-11 07:12:13 51°18.694 2°53.632 15.7 316 6.8 101120 68
2002-04-11 07:12:19 51°18.703 2°53.66 16.8 228 6.8 101120 68
2002-04-11 07:12:24 51°18.711 2°53.683 17.2 226 6.8 101120 69
2002-04-11 07:12:29 51°18.717 2°53.707 17.1 228 6.8 101120 69
2002-04-11 07:12:34 51°18.723 2°53.731 17 227 6.8 101120 69
2002-04-11 07:12:39 51°18.729 2°53.756 16.3 231 6.8 101120 69
2002-04-11 07:12:44 51°18.735 2°53.78 18.8 232 6.8 101110 69
2002-04-11 07:12:49 51°18.739 2°53.806 19.7 232 6.8 101110 69
2002-04-11 07:12:54 51°18.743 2°53.832 18 233 6.8 101130 70
2002-04-11 07:12:59 51°18.747 2°53.857 17.6 234 6.8 101130 70
2002-04-11 07:13:04 51°18.751 2°53.883 18 228 6.8 101140 70
2002-04-11 07:13:09 51°18.755 2°53.909 16.7 232 6.8 101140 70
2002-04-11 07:13:13 51°18.759 2°53.93 17.9 237 6.8 101140 67
2002-04-11 07:13:19 51°18.764 2°53.96 17.6 233 6.8 101140 67
2002-04-11 07:13:24 51°18.768 2°53.986 19.3 231 6.8 101130 67
2002-04-11 07:13:29 51°18.772 2°54.011 19.9 228 6.8 101130 67
2002-04-11 07:13:33 51°18.776 2°54.032 17.6 232 6.8 101120 68
2002-04-11 07:13:39 51°18.782 2°54.062 18.9 230 6.8 101120 68
2002-04-11 07:13:44 51°18.785 2°54.089 18.5 234 6.8 101130 69
2002-04-11 07:13:49 51°18.791 2°54.113 17.3 232 6.8 101130 69
2002-04-11 07:13:53 51°18.794 2°54.134 17.9 232 6.8 101130 67
2002-04-11 07:13:58 51°18.799 2°54.159 17.1 229 6.8 101130 67
2002-04-11 07:14:04 51°18.804 2°54.19 17.3 233 6.8 101140 66
2002-04-11 07:14:09 51°18.811 2°54.214 19.4 226 6.8 101140 66
2002-04-11 07:14:13 51°18.814 2°54.235 17.9 233 6.8 101130 67
2002-04-11 07:14:19 51°18.822 2°54.264 17.5 228 6.8 101130 67
2002-04-11 07:14:24 51°18.825 2°54.29 16.6 232 6.8 101140 66
2002-04-11 07:14:29 51°18.832 2°54.314 18 233 6.8 101140 66
2002-04-11 07:14:33 51°18.835 2°54.335 17 234 6.7 101120 65
2002-04-11 07:14:39 51°18.843 2°54.364 16.5 230 6.7 101120 65
2002-04-11 07:14:44 51°18.847 2°54.389 17.3 235 6.7 101130 67
2002-04-11 07:14:49 51°18.852 2°54.414 17.6 232 6.7 101130 67
2002-04-11 07:14:53 51°18.856 2°54.435 17.9 232 6.7 101130 67
2002-04-11 07:14:58 51°18.861 2°54.46 17.3 235 6.7 101130 67
2002-04-11 07:15:04 51°18.867 2°54.49 18.4 230 6.7 101130 67
2002-04-11 07:15:09 51°18.872 2°54.516 17.5 235 6.7 101130 67
2002-04-11 07:15:13 51°18.876 2°54.536 17.2 233 6.7 101130 67
2002-04-11 07:15:19 51°18.882 2°54.567 18.3 232 6.7 101130 67
2002-04-11 07:15:23 51°18.887 2°54.586 17.5 231 6.7 101140 67
2002-04-11 07:15:29 51°18.893 2°54.617 16.6 232 6.7 101140 67
2002-04-11 07:15:34 51°18.898 2°54.642 17.6 227 6.7 101120 67
2002-04-11 07:15:39 51°18.903 2°54.668 17.4 231 6.7 101120 67
2002-04-11 07:15:44 51°18.909 2°54.692 16.7 230 6.7 101120 67
2002-04-11 07:15:49 51°18.913 2°54.718 16.5 231 6.7 101120 67
2002-04-11 07:15:54 51°18.92 2°54.742 17.7 228 6.7 101130 68
2002-04-11 07:15:58 51°18.923 2°54.763 15.8 229 6.7 101130 68
2002-04-11 07:16:04 51°18.93 2°54.793 16.5 227 6.7 101120 67
2002-04-11 07:16:09 51°18.935 2°54.819 17.1 229 6.7 101120 67
2002-04-11 07:16:14 51°18.94 2°54.844 17.8 230 6.7 101130 69
2002-04-11 07:16:19 51°18.945 2°54.869 17.9 234 6.7 101130 69
2002-04-11 07:16:24 51°18.951 2°54.894 17.2 233 6.8 101140 70
2002-04-11 07:16:29 51°18.955 2°54.92 17.6 234 6.8 101140 70
2002-04-11 07:16:33 51°18.96 2°54.94 17.7 230 6.8 101140 70
2002-04-11 07:16:38 51°18.964 2°54.966 17 235 6.8 101140 70
2002-04-11 07:16:44 51°18.97 2°54.996 17.6 229 6.8 101120 68
2002-04-11 07:16:49 51°18.976 2°55.021 17.4 235 6.8 101120 68
2002-04-11 07:16:54 51°18.981 2°55.047 17.8 228 6.8 101130 68
2002-04-11 07:16:59 51°18.986 2°55.072 17.2 231 6.8 101130 68
2002-04-11 07:17:03 51°18.99 2°55.092 17.8 232 6.8 101140 69
2002-04-11 07:17:09 51°18.996 2°55.122 17.1 235 6.8 101140 69
2002-04-11 07:17:14 51°19.001 2°55.148 18.3 233 6.8 101130 69
2002-04-11 07:17:19 51°19.007 2°55.173 18.9 228 6.8 101130 69
2002-04-11 07:17:24 51°19.011 2°55.199 15.7 231 6.8 101140 68
2002-04-11 07:17:29 51°19.017 2°55.224 16.2 228 6.8 101140 68
2002-04-11 07:17:34 51°19.022 2°55.249 17.6 232 6.8 101140 67
2002-04-11 07:17:39 51°19.026 2°55.274 18.4 227 6.8 101140 67
2002-04-11 07:17:44 51°19.031 2°55.299 17.7 231 6.8 101140 68
2002-04-11 07:17:49 51°19.037 2°55.324 18.6 230 6.8 101140 68
2002-04-11 07:17:53 51°19.041 2°55.344 19 232 6.8 101130 67
2002-04-11 07:17:59 51°19.047 2°55.374 18.8 228 6.8 101130 67
2002-04-11 07:18:04 51°19.053 2°55.399 17.6 226 6.8 101120 67
2002-04-11 07:18:09 51°19.058 2°55.425 17.6 228 6.8 101120 67
2002-04-11 07:18:13 51°19.062 2°55.445 17.6 229 6.7 101140 68
2002-04-11 07:18:18 51°19.068 2°55.47 17.3 227 6.7 101140 68
2002-04-11 07:18:23 51°19.072 2°55.496 17.5 229 6.7 101120 67
2002-04-11 07:18:29 51°19.079 2°55.526 18.6 227 6.7 101120 67
2002-04-11 07:18:34 51°19.084 2°55.551 16.7 228 6.7 101140 67
2002-04-11 07:18:39 51°19.09 2°55.576 17.8 229 6.7 101140 67
2002-04-11 07:18:44 51°19.094 2°55.602 18.2 226 6.8 101140 68
2002-04-11 07:18:49 51°19.1 2°55.626 17.5 225 6.8 101140 68
2002-04-11 07:18:53 51°19.104 2°55.647 17.7 228 6.7 101130 67
2002-04-11 07:18:58 51°19.109 2°55.672 17.1 230 6.7 101130 67
2002-04-11 07:19:04 51°19.115 2°55.702 17 232 6.7 101130 67
2002-04-11 07:19:09 51°19.121 2°55.727 16.8 229 6.7 101130 67
2002-04-11 07:19:14 51°19.126 2°55.753 17.9 231 6.7 101140 67
2002-04-11 07:19:19 51°19.132 2°55.777 17.7 230 6.7 101140 67
2002-04-11 07:19:24 51°19.137 2°55.803 16.8 231 6.7 101130 67
2002-04-11 07:19:29 51°19.143 2°55.827 17.1 229 6.7 101130 67
2002-04-11 07:19:33 51°19.146 2°55.848 16.7 231 6.8 101130 68
2002-04-11 07:19:39 51°19.153 2°55.879 16.9 227 6.8 101130 68
2002-04-11 07:19:44 51°19.158 2°55.904 16.9 232 6.8 101140 67
2002-04-11 07:19:49 51°19.163 2°55.929 18.4 228 6.8 101140 67
2002-04-11 07:19:54 51°19.168 2°55.955 16.2 228 6.8 101130 67
2002-04-11 07:19:59 51°19.174 2°55.98 17.3 228 6.8 101130 67
2002-04-11 07:20:03 51°19.177 2°56 17.3 226 6.8 101140 67
2002-04-11 07:20:09 51°19.184 2°56.03 17.6 221 6.8 101140 67
2002-04-11 07:20:13 51°19.188 2°56.05 16.7 227 6.7 101130 67
2002-04-11 07:20:19 51°19.195 2°56.08 16.2 226 6.7 101130 67
2002-04-11 07:20:23 51°19.199 2°56.1 18.4 229 6.7 101140 67
2002-04-11 07:20:29 51°19.206 2°56.129 17.5 224 6.7 101140 67
2002-04-11 07:20:33 51°19.21 2°56.15 16.7 230 6.7 101130 66
2002-04-11 07:20:39 51°19.217 2°56.18 16.9 225 6.7 101130 66
2002-04-11 07:20:44 51°19.222 2°56.205 18.1 226 6.7 101130 66
2002-04-11 07:20:49 51°19.227 2°56.23 17.4 225 6.7 101130 66
2002-04-11 07:20:53 51°19.232 2°56.25 16.4 225 6.7 101130 65
2002-04-11 07:20:58 51°19.237 2°56.275 17.1 225 6.7 101130 65
2002-04-11 07:21:04 51°19.243 2°56.305 16.9 225 6.7 101110 66
2002-04-11 07:21:09 51°19.248 2°56.33 17 226 6.7 101110 66
2002-04-11 07:21:13 51°19.252 2°56.35 16.6 233 6.7 101120 66
2002-04-11 07:21:19 51°19.259 2°56.38 15 227 6.7 101120 66
2002-04-11 07:21:23 51°19.263 2°56.401 17.1 232 6.7 101130 67
2002-04-11 07:21:29 51°19.27 2°56.43 17.1 230 6.7 101130 67
2002-04-11 07:21:34 51°19.274 2°56.456 18 232 6.7 101130 69
2002-04-11 07:21:39 51°19.281 2°56.48 17.2 230 6.7 101130 69
2002-04-11 07:21:43 51°19.284 2°56.501 16.2 235 6.8 101130 70
2002-04-11 07:21:49 51°19.292 2°56.53 17.8 233 6.8 101130 70
2002-04-11 07:21:53 51°19.295 2°56.551 17.6 232 6.8 101130 69
2002-04-11 07:21:59 51°19.302 2°56.58 17.5 233 6.8 101130 69
2002-04-11 07:22:04 51°19.307 2°56.605 17.6 230 6.8 101130 68
2002-04-11 07:22:09 51°19.313 2°56.63 17.6 232 6.8 101130 68
2002-04-11 07:22:14 51°19.318 2°56.656 17.9 230 6.8 101130 66
2002-04-11 07:22:18 51°19.322 2°56.676 18.9 230 6.8 101130 66
2002-04-11 07:22:23 51°19.329 2°56.7 17.6 226 6.8 101140 66
2002-04-11 07:22:29 51°19.335 2°56.731 18.1 230 6.8 101140 66
2002-04-11 07:22:33 51°19.34 2°56.75 16.8 226 6.8 101140 66
2002-04-11 07:22:39 51°19.346 2°56.781 16.7 231 6.8 101140 66
2002-04-11 07:22:44 51°19.352 2°56.806 15.4 225 6.7 101130 66
2002-04-11 07:22:49 51°19.356 2°56.831 15.7 232 6.7 101130 66
2002-04-11 07:22:54 51°19.362 2°56.856 18.4 228 6.7 101140 66
2002-04-11 07:22:59 51°19.366 2°56.882 17.1 229 6.7 101140 66
2002-04-11 07:23:04 51°19.372 2°56.907 17.2 227 6.7 101130 68
2002-04-11 07:23:09 51°19.377 2°56.932 17.4 229 6.7 101130 68
2002-04-11 07:23:13 51°19.382 2°56.952 16.9 228 6.8 101130 69
2002-04-11 07:23:19 51°19.388 2°56.983 17.7 227 6.8 101130 69
2002-04-11 07:23:24 51°19.394 2°57.007 16.3 229 6.8 101140 68
2002-04-11 07:23:29 51°19.399 2°57.033 16.4 225 6.8 101140 68
2002-04-11 07:23:33 51°19.404 2°57.053 17.4 227 6.8 101120 68
2002-04-11 07:23:39 51°19.411 2°57.083 19.2 227 6.8 101120 68
2002-04-11 07:23:44 51°19.416 2°57.108 17.6 228 6.8 101130 67
2002-04-11 07:23:49 51°19.422 2°57.133 16.9 227 6.8 101130 67
2002-04-11 07:23:54 51°19.428 2°57.158 18.1 227 6.8 101140 67
2002-04-11 07:23:59 51°19.433 2°57.183 17.6 233 6.8 101140 67
2002-04-11 07:24:04 51°19.438 2°57.209 17.6 227 6.8 101130 67
2002-04-11 07:24:09 51°19.443 2°57.234 18.3 231 6.8 101130 67
2002-04-11 07:24:14 51°19.449 2°57.258 17.1 228 6.8 101130 68
2002-04-11 07:24:19 51°19.453 2°57.284 17.3 226 6.8 101130 68
2002-04-11 07:24:24 51°19.46 2°57.309 17.3 226 6.8 101120 67
2002-04-11 07:24:29 51°19.464 2°57.335 18 230 6.8 101120 67
2002-04-11 07:24:33 51°19.47 2°57.354 17.2 228 6.8 101120 66
2002-04-11 07:24:39 51°19.475 2°57.385 17.9 233 6.8 101120 66
2002-04-11 07:24:44 51°19.482 2°57.409 17.1 226 6.7 101130 65
2002-04-11 07:24:49 51°19.486 2°57.435 17 235 6.7 101130 65
2002-04-11 07:24:54 51°19.493 2°57.459 18.1 224 6.7 101140 65
2002-04-11 07:24:59 51°19.497 2°57.485 17.1 228 6.7 101140 65
2002-04-11 07:25:04 51°19.504 2°57.509 17.1 229 6.7 101130 66
2002-04-11 07:25:09 51°19.508 2°57.534 17.5 232 6.7 101130 66
2002-04-11 07:25:14 51°19.515 2°57.559 15.7 228 6.7 101140 66
2002-04-11 07:25:19 51°19.519 2°57.585 15.6 230 6.7 101140 66
2002-04-11 07:25:24 51°19.525 2°57.609 18.8 230 6.7 101130 66
2002-04-11 07:25:29 51°19.53 2°57.635 17.4 231 6.7 101130 66
2002-04-11 07:25:33 51°19.534 2°57.655 18.3 234 6.7 101130 67
2002-04-11 07:25:39 51°19.542 2°57.685 18.2 231 6.7 101130 67
2002-04-11 07:25:44 51°19.547 2°57.71 16.5 230 6.8 101140 67
2002-04-11 07:25:49 51°19.553 2°57.735 17.1 230 6.8 101140 67
2002-04-11 07:25:54 51°19.558 2°57.761 15.5 226 6.8 101120 66
2002-04-11 07:25:59 51°19.564 2°57.785 16.4 228 6.8 101120 66
2002-04-11 07:26:04 51°19.569 2°57.811 15.7 229 6.7 101130 67
2002-04-11 07:26:09 51°19.575 2°57.836 17 227 6.7 101130 67
2002-04-11 07:26:14 51°19.58 2°57.862 16.7 232 6.8 101130 67
2002-04-11 07:26:19 51°19.586 2°57.887 17.4 232 6.8 101130 67
2002-04-11 07:26:23 51°19.59 2°57.906 17.5 232 6.8 101130 68
2002-04-11 07:26:29 51°19.597 2°57.936 15.4 229 6.8 101130 68
2002-04-11 07:26:33 51°19.602 2°57.957 16.3 232 6.8 101130 68
2002-04-11 07:26:39 51°19.608 2°57.987 17.4 227 6.8 101130 68
2002-04-11 07:26:44 51°19.613 2°58.013 17.4 230 6.8 101120 67
2002-04-11 07:26:49 51°19.619 2°58.037 16.4 230 6.8 101120 67
2002-04-11 07:26:54 51°19.624 2°58.062 17.3 229 6.8 101130 69
2002-04-11 07:26:59 51°19.631 2°58.087 16.5 227 6.8 101130 69
2002-04-11 07:27:04 51°19.636 2°58.113 16.4 228 6.8 101140 68
2002-04-11 07:27:09 51°19.642 2°58.137 16.5 225 6.8 101140 68
2002-04-11 07:27:14 51°19.647 2°58.163 16.6 227 6.8 101140 67
2002-04-11 07:27:19 51°19.654 2°58.187 17.3 226 6.8 101140 67
2002-04-11 07:27:23 51°19.658 2°58.207 16.2 235 6.8 101130 67
2002-04-11 07:27:29 51°19.665 2°58.237 15.4 225 6.8 101130 67
2002-04-11 07:27:34 51°19.67 2°58.263 16.2 233 6.8 101130 68
2002-04-11 07:27:38 51°19.676 2°58.282 15.6 229 6.8 101130 68
2002-04-11 07:27:43 51°19.68 2°58.308 15.8 231 6.8 101140 69
2002-04-11 07:27:49 51°19.687 2°58.338 16.1 226 6.8 101140 69
2002-04-11 07:27:54 51°19.692 2°58.364 16.3 229 6.8 101120 69
2002-04-11 07:27:58 51°19.696 2°58.384 17 226 6.8 101120 69
2002-04-11 07:28:03 51°19.701 2°58.409 16.5 233 6.8 101130 69
2002-04-11 07:28:09 51°19.709 2°58.439 15.9 234 6.8 101130 69
2002-04-11 07:28:14 51°19.713 2°58.465 15.4 236 6.8 101120 69
2002-04-11 07:28:19 51°19.72 2°58.49 16.3 226 6.8 101120 69
2002-04-11 07:28:24 51°19.725 2°58.516 15.8 230 6.8 101140 69
2002-04-11 07:28:29 51°19.731 2°58.541 16.1 228 6.8 101140 69
2002-04-11 07:28:34 51°19.735 2°58.567 16.8 234 6.9 101130 70
2002-04-11 07:28:39 51°19.742 2°58.591 16.7 229 6.9 101130 70
2002-04-11 07:28:44 51°19.746 2°58.617 17.2 232 6.9 101120 71
2002-04-11 07:28:49 51°19.752 2°58.641 16.1 231 6.9 101120 71
2002-04-11 07:28:53 51°19.756 2°58.662 18.7 230 6.9 101130 70
2002-04-11 07:28:59 51°19.763 2°58.692 18.5 228 6.9 101130 70
2002-04-11 07:29:04 51°19.769 2°58.718 19 234 6.9 101120 69
2002-04-11 07:29:09 51°19.775 2°58.742 17.9 232 6.9 101120 69
2002-04-11 07:29:13 51°19.779 2°58.762 18 234 6.9 101120 68
2002-04-11 07:29:19 51°19.786 2°58.792 17.5 232 6.9 101120 68
2002-04-11 07:29:24 51°19.791 2°58.817 16.2 233 6.9 101120 68
2002-04-11 07:29:29 51°19.797 2°58.842 16.6 233 6.9 101120 68
2002-04-11 07:29:34 51°19.802 2°58.867 19 233 6.9 101120 68
2002-04-11 07:29:39 51°19.808 2°58.891 18.1 232 6.9 101120 68
2002-04-11 07:29:44 51°19.813 2°58.917 17.7 230 6.8 101130 67
2002-04-11 07:29:49 51°19.82 2°58.941 18.3 230 6.8 101130 67
2002-04-11 07:29:54 51°19.825 2°58.966 16.8 233 6.8 101120 67
2002-04-11 07:29:59 51°19.831 2°58.991 16.7 230 6.8 101120 67
2002-04-11 07:30:04 51°19.837 2°59.016 17.2 227 6.8 101140 67
2002-04-11 07:30:09 51°19.842 2°59.039 18.6 229 6.8 101140 67
2002-04-11 07:30:13 51°19.847 2°59.06 16.4 229 6.8 101110 67
2002-04-11 07:30:19 51°19.854 2°59.089 18 229 6.8 101110 67
2002-04-11 07:30:23 51°19.858 2°59.109 16.9 231 6.8 101130 68
2002-04-11 07:30:29 51°19.865 2°59.139 17 231 6.8 101130 68
2002-04-11 07:30:34 51°19.87 2°59.165 17.3 232 6.8 101130 68
2002-04-11 07:30:39 51°19.876 2°59.189 17.1 231 6.8 101130 68
2002-04-11 07:30:44 51°19.882 2°59.214 17.4 228 6.8 101130 68
2002-04-11 07:30:49 51°19.887 2°59.239 18.3 225 6.8 101130 68
2002-04-11 07:30:54 51°19.893 2°59.264 16.9 229 6.8 101130 66
2002-04-11 07:30:59 51°19.898 2°59.289 19 227 6.8 101130 66
2002-04-11 07:31:03 51°19.902 2°59.308 17 227 6.8 101120 66
2002-04-11 07:31:09 51°19.908 2°59.339 16.5 231 6.8 101120 66
2002-04-11 07:31:14 51°19.914 2°59.364 16.7 227 6.8 101130 67
2002-04-11 07:31:19 51°19.92 2°59.388 17.1 231 6.8 101130 67
2002-04-11 07:31:24 51°19.925 2°59.413 16.9 232 6.8 101120 67
2002-04-11 07:31:29 51°19.931 2°59.438 17.7 229 6.8 101120 67
2002-04-11 07:31:34 51°19.937 2°59.463 17.2 230 6.8 101120 66
2002-04-11 07:31:39 51°19.942 2°59.488 17.2 230 6.8 101120 66
2002-04-11 07:31:43 51°19.948 2°59.507 16.5 230 6.8 101120 67
2002-04-11 07:31:49 51°19.954 2°59.537 17.2 232 6.8 101120 67
2002-04-11 07:31:53 51°19.959 2°59.557 16 232 6.8 101130 67
2002-04-11 07:31:59 51°19.965 2°59.587 16.6 231 6.8 101130 67
2002-04-11 07:32:04 51°19.971 2°59.611 17.1 228 6.8 101120 67
2002-04-11 07:32:09 51°19.976 2°59.637 15.6 228 6.8 101120 67
2002-04-11 07:32:13 51°19.982 2°59.656 15.4 227 6.8 101130 66
2002-04-11 07:32:19 51°19.987 2°59.687 15.8 232 6.8 101130 66
2002-04-11 07:32:24 51°19.994 2°59.711 17.4 228 6.8 101120 67
2002-04-11 07:32:29 51°19.998 2°59.736 15.2 233 6.8 101120 67
2002-04-11 07:32:34 51°20.005 2°59.761 15.6 225 6.8 101110 67
2002-04-11 07:32:39 51°20.01 2°59.786 18.2 226 6.8 101110 67
2002-04-11 07:32:44 51°20.017 2°59.811 18.9 227 6.8 101120 68
2002-04-11 07:32:49 51°20.022 2°59.836 18.2 228 6.8 101120 68
2002-04-11 07:32:54 51°20.029 2°59.86 16.8 226 6.8 101120 69
2002-04-11 07:32:59 51°20.034 2°59.885 16.3 227 6.8 101120 69
2002-04-11 07:33:04 51°20.04 2°59.909 16.3 226 6.8 101110 68
2002-04-11 07:33:09 51°20.046 2°59.935 17.4 231 6.8 101110 68
2002-04-11 07:33:14 51°20.052 2°59.959 16.1 230 6.8 101130 67
2002-04-11 07:33:19 51°20.057 2°59.985 16.6 227 6.8 101130 67
2002-04-11 07:33:23 51°20.061 3°0.004 17.1 227 6.8 101120 67
2002-04-11 07:33:29 51°20.068 3°0.034 16 232 6.8 101120 67
2002-04-11 07:33:33 51°20.073 3°0.054 15.5 229 6.8 101120 68
2002-04-11 07:33:39 51°20.079 3°0.084 14.3 232 6.8 101120 68
2002-04-11 07:33:44 51°20.085 3°0.109 16.4 231 6.8 101120 68
2002-04-11 07:33:49 51°20.091 3°0.134 16.2 224 6.8 101120 68
2002-04-11 07:33:54 51°20.096 3°0.158 16.9 234 6.8 101110 68
2002-04-11 07:33:59 51°20.102 3°0.183 16.1 231 6.8 101110 68
2002-04-11 07:34:04 51°20.107 3°0.208 17 231 6.8 101120 69
2002-04-11 07:34:09 51°20.113 3°0.233 17.4 227 6.8 101120 69
2002-04-11 07:34:14 51°20.118 3°0.258 17 231 6.8 101130 69
2002-04-11 07:34:19 51°20.125 3°0.283 16.6 229 6.8 101130 69
2002-04-11 07:34:24 51°20.131 3°0.308 16.7 229 6.8 101120 69
2002-04-11 07:34:29 51°20.135 3°0.333 16.3 228 6.8 101120 69
2002-04-11 07:34:33 51°20.14 3°0.352 16.1 228 6.8 101130 68
2002-04-11 07:34:39 51°20.147 3°0.383 15.7 235 6.8 101130 68
2002-04-11 07:34:43 51°20.152 3°0.402 16.3 224 6.8 101120 67
2002-04-11 07:34:49 51°20.158 3°0.432 16.5 230 6.8 101120 67
2002-04-11 07:34:54 51°20.165 3°0.457 16.6 230 6.8 101120 67
2002-04-11 07:34:59 51°20.17 3°0.482 17.2 231 6.8 101120 67
2002-04-11 07:35:03 51°20.175 3°0.501 16.9 226 6.8 101120 68
2002-04-11 07:35:09 51°20.181 3°0.531 16.3 229 6.8 101120 68
2002-04-11 07:35:13 51°20.186 3°0.551 17.8 230 6.8 101120 67
2002-04-11 07:35:19 51°20.193 3°0.58 16.4 228 6.8 101120 67
2002-04-11 07:35:24 51°20.198 3°0.605 17.2 226 6.8 101110 67
2002-04-11 07:35:29 51°20.204 3°0.63 16.2 229 6.8 101110 67
2002-04-11 07:35:33 51°20.208 3°0.65 17.9 229 6.8 101130 67
2002-04-11 07:35:39 51°20.215 3°0.679 17.5 227 6.8 101130 67
2002-04-11 07:35:42 51°20.218 3°0.694 16.5 231 6.8 101120 67
2002-04-11 07:35:49 51°20.226 3°0.728 16.1 231 6.8 101120 67
2002-04-11 07:35:54 51°20.232 3°0.753 17 229 6.8 101130 68
2002-04-11 07:35:59 51°20.237 3°0.778 17.3 232 6.8 101130 68
2002-04-11 07:36:04 51°20.242 3°0.803 15.5 229 6.8 101120 67
2002-04-11 07:36:09 51°20.248 3°0.828 16.9 228 6.8 101120 67
2002-04-11 07:36:14 51°20.252 3°0.853 16.8 231 6.8 101120 67
2002-04-11 07:36:18 51°20.258 3°0.872 16.5 228 6.8 101120 67
2002-04-11 07:36:24 51°20.264 3°0.902 15.7 231 6.8 101120 66
2002-04-11 07:36:29 51°20.271 3°0.926 17.4 226 6.8 101120 66
2002-04-11 07:36:34 51°20.276 3°0.951 16.1 231 6.8 101120 66
2002-04-11 07:36:39 51°20.283 3°0.976 16.1 226 6.8 101120 66
2002-04-11 07:36:44 51°20.289 3°1 16.7 229 6.8 101110 67
2002-04-11 07:36:49 51°20.295 3°1.024 16.2 225 6.8 101110 67
2002-04-11 07:36:53 51°20.301 3°1.044 15.7 224 6.8 101110 66
2002-04-11 07:36:58 51°20.307 3°1.069 15.9 227 6.8 101110 66
2002-04-11 07:37:04 51°20.315 3°1.097 14.9 315 6.8 101120 67
2002-04-11 07:37:09 51°20.321 3°1.122 16.9 227 6.8 101120 67
2002-04-11 07:37:13 51°20.326 3°1.141 16.6 227 6.8 101120 67
2002-04-11 07:37:19 51°20.334 3°1.17 17 228 6.8 101120 67
2002-04-11 07:37:24 51°20.342 3°1.195 17.4 230 6.8 101120 67
2002-04-11 07:37:29 51°20.347 3°1.22 17.4 231 6.8 101120 67
2002-04-11 07:37:34 51°20.354 3°1.244 16 229 6.8 101130 68
2002-04-11 07:37:39 51°20.36 3°1.269 16.6 228 6.8 101130 68
2002-04-11 07:37:43 51°20.365 3°1.288 16.6 232 6.8 101120 67
2002-04-11 07:37:49 51°20.372 3°1.318 16.6 229 6.8 101120 67
2002-04-11 07:37:54 51°20.379 3°1.342 16.6 134 6.8 101120 67
2002-04-11 07:37:59 51°20.385 3°1.367 15.2 224 6.8 101120 67
2002-04-11 07:38:04 51°20.392 3°1.391 18 228 6.8 101120 68
2002-04-11 07:38:09 51°20.398 3°1.416 17.3 226 6.8 101120 68
2002-04-11 07:38:14 51°20.405 3°1.44 16.3 225 6.8 101110 68
2002-04-11 07:38:19 51°20.411 3°1.465 14.5 229 6.8 101110 68
2002-04-11 07:38:24 51°20.417 3°1.489 17.1 228 6.8 101120 68
2002-04-11 07:38:29 51°20.423 3°1.514 18 229 6.8 101120 68
2002-04-11 07:38:34 51°20.429 3°1.538 16.7 229 6.8 101120 67
2002-04-11 07:38:39 51°20.435 3°1.562 17.6 228 6.8 101120 67
2002-04-11 07:38:43 51°20.441 3°1.582 16.2 230 6.8 101130 67
2002-04-11 07:38:49 51°20.448 3°1.611 17 230 6.8 101130 67
2002-04-11 07:38:53 51°20.453 3°1.63 16 227 6.8 101120 67
2002-04-11 07:38:59 51°20.46 3°1.659 16.4 229 6.8 101120 67
2002-04-11 07:39:04 51°20.467 3°1.683 18 225 6.8 101120 67
2002-04-11 07:39:09 51°20.473 3°1.708 16.7 230 6.8 101120 67
2002-04-11 07:39:14 51°20.48 3°1.732 18.1 224 6.8 101110 67
2002-04-11 07:39:19 51°20.486 3°1.756 17.1 227 6.8 101110 67
2002-04-11 07:39:24 51°20.493 3°1.78 16.9 225 6.8 101110 67
2002-04-11 07:39:29 51°20.499 3°1.804 15.6 226 6.8 101110 67
2002-04-11 07:39:34 51°20.507 3°1.827 15.7 223 6.8 101110 67
2002-04-11 07:39:39 51°20.513 3°1.851 15.4 225 6.8 101110 67
2002-04-11 07:39:44 51°20.521 3°1.875 15.9 223 6.8 101110 67
2002-04-11 07:39:49 51°20.527 3°1.899 15.1 231 6.8 101110 67
2002-04-11 07:39:54 51°20.533 3°1.923 15.6 223 6.8 101100 68
2002-04-11 07:39:59 51°20.539 3°1.948 15.6 233 6.8 101100 68
2002-04-11 07:40:03 51°20.545 3°1.967 16.6 226 6.8 101120 69
2002-04-11 07:40:09 51°20.552 3°1.995 16.8 230 6.8 101120 69
2002-04-11 07:40:14 51°20.559 3°2.02 16.2 227 6.8 101120 70
2002-04-11 07:40:18 51°20.564 3°2.04 17.5 227 6.8 101120 70
2002-04-11 07:40:23 51°20.572 3°2.064 17 226 6.8 101110 69
2002-04-11 07:40:28 51°20.578 3°2.089 16.9 228 6.8 101110 69
2002-04-11 07:40:34 51°20.586 3°2.118 17.7 225 6.8 101120 69
2002-04-11 07:40:39 51°20.592 3°2.142 16.1 228 6.8 101120 69
2002-04-11 07:40:44 51°20.599 3°2.166 16.1 225 6.8 101120 67
2002-04-11 07:40:49 51°20.606 3°2.19 16.2 225 6.8 101120 67
2002-04-11 07:40:53 51°20.611 3°2.21 16.8 228 6.8 101110 67
2002-04-11 07:40:58 51°20.617 3°2.234 16 225 6.8 101110 67
2002-04-11 07:41:03 51°20.624 3°2.258 15.2 226 6.8 101110 68
2002-04-11 07:41:09 51°20.632 3°2.288 16.1 226 6.8 101110 68
2002-04-11 07:41:14 51°20.638 3°2.312 16.9 225 6.8 101120 68
2002-04-11 07:41:19 51°20.645 3°2.336 17.4 228 6.8 101120 68
2002-04-11 07:41:24 51°20.651 3°2.361 16.2 228 6.8 101110 68
2002-04-11 07:41:29 51°20.658 3°2.385 15.6 225 6.8 101110 68
2002-04-11 07:41:34 51°20.664 3°2.41 16.6 227 6.8 101110 68
2002-04-11 07:41:39 51°20.671 3°2.434 15.6 222 6.8 101110 68
2002-04-11 07:41:43 51°20.676 3°2.454 18.2 227 6.8 101120 67
2002-04-11 07:41:49 51°20.684 3°2.482 16.3 134 6.8 101120 67
2002-04-11 07:41:54 51°20.69 3°2.506 16.3 224 6.8 101110 68
2002-04-11 07:41:59 51°20.697 3°2.531 17.2 226 6.8 101110 68
2002-04-11 07:42:04 51°20.703 3°2.555 17.4 226 6.8 101120 67
2002-04-11 07:42:09 51°20.71 3°2.579 16.2 226 6.8 101120 67
2002-04-11 07:42:14 51°20.716 3°2.604 17.1 228 6.8 101110 68
2002-04-11 07:42:19 51°20.723 3°2.627 16.2 227 6.8 101110 68
2002-04-11 07:42:24 51°20.73 3°2.651 15 225 6.8 101110 67
2002-04-11 07:42:29 51°20.736 3°2.676 16 225 6.8 101110 67
2002-04-11 07:42:33 51°20.742 3°2.695 15.6 225 6.8 101110 67
2002-04-11 07:42:39 51°20.75 3°2.724 15.6 230 6.8 101110 67
2002-04-11 07:42:44 51°20.757 3°2.748 15.4 316 6.8 101120 66
2002-04-11 07:42:49 51°20.763 3°2.773 16.1 228 6.8 101120 66
2002-04-11 07:42:54 51°20.77 3°2.798 16.6 228 6.8 101120 68
2002-04-11 07:42:58 51°20.775 3°2.817 16.4 228 6.8 101120 68
2002-04-11 07:43:04 51°20.783 3°2.846 16.5 223 6.8 101110 69
2002-04-11 07:43:09 51°20.79 3°2.87 15.5 230 6.8 101110 69
2002-04-11 07:43:13 51°20.795 3°2.889 16.7 229 6.8 101120 69
2002-04-11 07:43:19 51°20.803 3°2.918 16.5 225 6.8 101120 69
2002-04-11 07:43:24 51°20.809 3°2.943 16.9 224 6.8 101120 69
2002-04-11 07:43:29 51°20.816 3°2.967 16.5 228 6.8 101120 69
2002-04-11 07:43:34 51°20.822 3°2.991 17.3 224 6.8 101110 68
2002-04-11 07:43:39 51°20.829 3°3.015 15.2 225 6.8 101110 68
2002-04-11 07:43:43 51°20.834 3°3.035 15.6 227 6.8 101110 67
2002-04-11 07:43:49 51°20.842 3°3.064 15.9 227 6.8 101110 67
2002-04-11 07:43:54 51°20.849 3°3.088 15.7 223 6.8 101110 68
2002-04-11 07:43:59 51°20.855 3°3.112 15 226 6.8 101110 68
2002-04-11 07:44:04 51°20.862 3°3.136 15.6 225 6.8 101110 69
2002-04-11 07:44:08 51°20.867 3°3.156 16.1 225 6.8 101110 69
2002-04-11 07:44:13 51°20.873 3°3.18 17.4 224 6.8 101110 69
2002-04-11 07:44:19 51°20.881 3°3.209 16.8 222 6.8 101110 69
2002-04-11 07:44:24 51°20.887 3°3.233 17.5 222 6.9 101120 69
2002-04-11 07:44:29 51°20.894 3°3.256 15.8 225 6.9 101120 69
2002-04-11 07:44:33 51°20.9 3°3.276 15.3 222 6.9 101120 68
2002-04-11 07:44:39 51°20.908 3°3.305 15.9 226 6.9 101120 68
2002-04-11 07:44:43 51°20.913 3°3.324 14.7 227 6.8 101130 67
2002-04-11 07:44:49 51°20.921 3°3.353 16.4 230 6.8 101130 67
2002-04-11 07:44:54 51°20.928 3°3.377 16.9 228 6.8 101110 67
2002-04-11 07:44:59 51°20.934 3°3.4 16.4 226 6.8 101110 67
2002-04-11 07:45:04 51°20.941 3°3.425 17 227 6.9 101110 70
2002-04-11 07:45:09 51°20.948 3°3.449 16.9 229 6.9 101110 70
2002-04-11 07:45:14 51°20.954 3°3.473 15.1 231 6.9 101100 69
2002-04-11 07:45:19 51°20.96 3°3.497 15.8 227 6.9 101100 69
2002-04-11 07:45:24 51°20.967 3°3.522 17.2 228 6.9 101120 68
2002-04-11 07:45:29 51°20.973 3°3.546 15.3 231 6.9 101120 68
2002-04-11 07:45:34 51°20.981 3°3.57 16.9 227 6.9 101120 68
2002-04-11 07:45:39 51°20.986 3°3.595 16.6 232 6.9 101120 68
2002-04-11 07:45:44 51°20.994 3°3.618 16.3 228 6.9 101110 68
2002-04-11 07:45:49 51°21 3°3.643 17.5 225 6.9 101110 68
2002-04-11 07:45:54 51°21.007 3°3.667 18.1 224 6.9 101110 68
2002-04-11 07:45:59 51°21.014 3°3.691 15.4 226 6.9 101110 68
2002-04-11 07:46:04 51°21.021 3°3.715 16.1 225 6.9 101120 69
2002-04-11 07:46:09 51°21.027 3°3.74 16.5 225 6.9 101120 69
2002-04-11 07:46:14 51°21.034 3°3.764 16.9 224 6.9 101110 68
2002-04-11 07:46:19 51°21.041 3°3.788 17.4 227 6.9 101110 68
2002-04-11 07:46:24 51°21.048 3°3.812 16.5 226 6.9 101120 68
2002-04-11 07:46:29 51°21.054 3°3.837 16.6 226 6.9 101120 68
2002-04-11 07:46:33 51°21.06 3°3.856 16.1 225 6.9 101110 67
2002-04-11 07:46:39 51°21.068 3°3.886 15.3 317 6.9 101110 67
2002-04-11 07:46:44 51°21.075 3°3.909 14.9 227 6.9 101120 66
2002-04-11 07:46:49 51°21.081 3°3.934 16 227 6.9 101120 66
2002-04-11 07:46:54 51°21.088 3°3.958 16.2 315 6.9 101110 67
2002-04-11 07:46:59 51°21.095 3°3.983 15.7 225 6.9 101110 67
2002-04-11 07:47:04 51°21.101 3°4.007 16.1 227 6.9 101120 70
2002-04-11 07:47:09 51°21.108 3°4.03 15 223 6.9 101120 70
2002-04-11 07:47:14 51°21.115 3°4.055 15.6 228 6.9 101110 69
2002-04-11 07:47:19 51°21.122 3°4.079 15.2 229 6.9 101110 69
2002-04-11 07:47:24 51°21.129 3°4.103 16.4 226 6.9 101110 69
2002-04-11 07:47:29 51°21.135 3°4.127 16.8 228 6.9 101110 69
2002-04-11 07:47:34 51°21.143 3°4.151 17.1 226 6.9 101110 69
2002-04-11 07:47:39 51°21.15 3°4.176 17.9 230 6.9 101110 69
2002-04-11 07:47:44 51°21.157 3°4.199 17.7 229 6.9 101120 70
2002-04-11 07:47:49 51°21.163 3°4.223 17.7 232 6.9 101120 70
2002-04-11 07:47:53 51°21.169 3°4.242 16.5 229 6.9 101110 69
2002-04-11 07:47:59 51°21.177 3°4.272 17.6 231 6.9 101110 69
2002-04-11 07:48:04 51°21.184 3°4.296 18.4 225 6.9 101120 67
2002-04-11 07:48:09 51°21.191 3°4.32 17.7 224 6.9 101120 67
2002-04-11 07:48:14 51°21.197 3°4.345 17.3 226 6.9 101120 68
2002-04-11 07:48:19 51°21.204 3°4.37 16.5 227 6.9 101120 68
2002-04-11 07:48:24 51°21.21 3°4.394 16.4 226 6.9 101130 67
2002-04-11 07:48:29 51°21.217 3°4.419 16.7 230 6.9 101130 67
2002-04-11 07:48:34 51°21.224 3°4.443 17.1 228 6.9 101110 66
2002-04-11 07:48:39 51°21.231 3°4.467 17.1 315 6.9 101110 66
2002-04-11 07:48:44 51°21.237 3°4.492 14.8 226 6.9 101110 66
2002-04-11 07:48:49 51°21.244 3°4.516 15.6 224 6.9 101110 66
2002-04-11 07:48:54 51°21.251 3°4.541 16.8 227 6.9 101120 67
2002-04-11 07:48:58 51°21.256 3°4.56 16 226 6.9 101120 67
2002-04-11 07:49:03 51°21.262 3°4.585 15.4 226 6.9 101120 68
2002-04-11 07:49:09 51°21.27 3°4.614 15.3 228 6.9 101120 68
2002-04-11 07:49:14 51°21.277 3°4.638 15.6 226 6.9 101110 69
2002-04-11 07:49:19 51°21.284 3°4.662 15 227 6.9 101110 69
2002-04-11 07:49:24 51°21.29 3°4.687 16.7 229 6.9 101120 69
2002-04-11 07:49:29 51°21.297 3°4.711 16.6 229 6.9 101120 69
2002-04-11 07:49:34 51°21.304 3°4.736 15 315 7 101120 69
2002-04-11 07:49:39 51°21.31 3°4.76 14.8 226 7 101120 69
2002-04-11 07:49:44 51°21.317 3°4.784 16.9 225 6.9 101120 69
2002-04-11 07:49:49 51°21.324 3°4.809 17.3 229 6.9 101120 69
2002-04-11 07:49:53 51°21.33 3°4.828 15.8 222 7 101110 69
2002-04-11 07:49:59 51°21.338 3°4.857 16.2 226 7 101110 69
2002-04-11 07:50:04 51°21.345 3°4.881 15.1 226 7 101110 69
2002-04-11 07:50:09 51°21.352 3°4.905 16 228 7 101110 69
2002-04-11 07:50:13 51°21.358 3°4.925 17.7 231 7 101110 68
2002-04-11 07:50:18 51°21.364 3°4.949 16.8 227 7 101110 68
2002-04-11 07:50:23 51°21.37 3°4.974 18 231 6.9 101110 68
2002-04-11 07:50:29 51°21.379 3°5.004 18.2 228 6.9 101110 68
2002-04-11 07:50:34 51°21.385 3°5.028 16.6 226 6.9 101120 68
2002-04-11 07:50:39 51°21.392 3°5.052 16.4 225 6.9 101120 68
2002-04-11 07:50:43 51°21.397 3°5.072 16.6 225 6.9 101100 66
2002-04-11 07:50:49 51°21.405 3°5.101 17.3 226 6.9 101100 66
2002-04-11 07:50:53 51°21.41 3°5.121 15.2 229 6.9 101110 66
2002-04-11 07:50:59 51°21.418 3°5.15 17.7 225 6.9 101110 66
2002-04-11 07:51:04 51°21.425 3°5.175 16.4 226 6.9 101120 67
2002-04-11 07:51:09 51°21.432 3°5.199 16.2 227 6.9 101120 67
2002-04-11 07:51:14 51°21.439 3°5.224 16 226 7 101110 69
2002-04-11 07:51:19 51°21.446 3°5.248 17.1 230 7 101110 69
2002-04-11 07:51:23 51°21.451 3°5.268 16.8 227 6.9 101110 67
2002-04-11 07:51:29 51°21.46 3°5.297 17.3 226 6.9 101110 67
2002-04-11 07:51:33 51°21.465 3°5.316 17.4 223 6.9 101110 67
2002-04-11 07:51:39 51°21.473 3°5.345 18.4 224 6.9 101110 67
2002-04-11 07:51:43 51°21.478 3°5.365 15.1 230 6.9 101130 67
2002-04-11 07:51:49 51°21.487 3°5.394 16.9 224 6.9 101130 67
2002-04-11 07:51:54 51°21.493 3°5.419 15.6 230 6.9 101130 66
2002-04-11 07:51:59 51°21.501 3°5.443 17 226 6.9 101130 66
2002-04-11 07:52:04 51°21.507 3°5.468 17.2 227 6.9 101120 68
2002-04-11 07:52:09 51°21.514 3°5.491 17.7 316 6.9 101120 68
2002-04-11 07:52:14 51°21.52 3°5.517 16.2 227 6.9 101110 67
2002-04-11 07:52:19 51°21.527 3°5.541 16.8 223 6.9 101110 67
2002-04-11 07:52:23 51°21.532 3°5.56 16.1 229 6.9 101120 66
2002-04-11 07:52:29 51°21.542 3°5.589 16.6 225 6.9 101120 66
2002-04-11 07:52:34 51°21.547 3°5.614 17.1 227 6.9 101120 65
2002-04-11 07:52:39 51°21.555 3°5.638 16.8 224 6.9 101120 65
2002-04-11 07:52:44 51°21.561 3°5.664 17.2 227 6.9 101110 66
2002-04-11 07:52:49 51°21.568 3°5.688 17.1 225 6.9 101110 66
2002-04-11 07:52:54 51°21.574 3°5.713 15.2 228 6.9 101120 65
2002-04-11 07:52:59 51°21.582 3°5.737 16.4 224 6.9 101120 65
2002-04-11 07:53:04 51°21.588 3°5.762 14.7 229 6.9 101120 66
2002-04-11 07:53:09 51°21.595 3°5.786 15.7 228 6.9 101120 66
2002-04-11 07:53:14 51°21.601 3°5.811 14.6 229 6.9 101110 68
2002-04-11 07:53:19 51°21.609 3°5.835 16.4 228 6.9 101110 68
2002-04-11 07:53:24 51°21.615 3°5.86 15.9 229 6.9 101120 70
2002-04-11 07:53:29 51°21.622 3°5.885 16.8 231 6.9 101120 70
2002-04-11 07:53:34 51°21.629 3°5.908 16.2 232 7 101120 69
2002-04-11 07:53:39 51°21.635 3°5.933 16 230 7 101120 69
2002-04-11 07:53:43 51°21.641 3°5.952 16.1 230 7 101120 69
2002-04-11 07:53:49 51°21.649 3°5.982 17.2 229 7 101120 69
2002-04-11 07:53:54 51°21.656 3°6.006 15.9 234 7 101120 68
2002-04-11 07:53:59 51°21.663 3°6.03 17.1 231 7 101120 68
2002-04-11 07:54:04 51°21.669 3°6.055 16.8 231 6.9 101110 67
2002-04-11 07:54:09 51°21.677 3°6.079 16.9 234 6.9 101110 67
2002-04-11 07:54:14 51°21.683 3°6.104 17.2 229 6.9 101110 67
2002-04-11 07:54:19 51°21.69 3°6.128 15.5 232 6.9 101110 67
2002-04-11 07:54:24 51°21.696 3°6.153 15.1 233 6.9 101130 67
2002-04-11 07:54:29 51°21.703 3°6.177 17.7 233 6.9 101130 67
2002-04-11 07:54:34 51°21.709 3°6.202 16.7 230 6.9 101120 67
2002-04-11 07:54:39 51°21.717 3°6.225 16.2 229 6.9 101120 67
2002-04-11 07:54:44 51°21.723 3°6.251 15.4 234 6.9 101120 68
2002-04-11 07:54:49 51°21.73 3°6.275 15.7 232 6.9 101120 68
2002-04-11 07:54:53 51°21.735 3°6.295 15.2 231 6.9 101130 67
2002-04-11 07:54:59 51°21.744 3°6.324 15.7 232 6.9 101130 67
2002-04-11 07:55:04 51°21.75 3°6.349 17.1 230 6.9 101110 67
2002-04-11 07:55:09 51°21.757 3°6.373 17.1 229 6.9 101110 67
2002-04-11 07:55:14 51°21.764 3°6.398 16.8 230 6.9 101120 67
2002-04-11 07:55:19 51°21.771 3°6.423 17 226 6.9 101120 67
2002-04-11 07:55:24 51°21.778 3°6.447 17.1 227 6.9 101120 69
2002-04-11 07:55:29 51°21.785 3°6.471 15.5 225 6.9 101120 69
2002-04-11 07:55:33 51°21.792 3°6.491 17.7 227 6.9 101120 68
2002-04-11 07:55:39 51°21.799 3°6.52 17.5 226 6.9 101120 68
2002-04-11 07:55:44 51°21.806 3°6.544 16.9 226 6.9 101110 67
2002-04-11 07:55:49 51°21.813 3°6.569 16.6 223 6.9 101110 67
2002-04-11 07:55:54 51°21.821 3°6.593 17.1 227 6.9 101120 66
2002-04-11 07:55:59 51°21.828 3°6.617 17.4 229 6.9 101120 66
2002-04-11 07:56:03 51°21.835 3°6.636 18.4 225 6.9 101110 65
2002-04-11 07:56:09 51°21.843 3°6.665 16.5 228 6.9 101110 65
2002-04-11 07:56:14 51°21.85 3°6.69 16.9 227 6.9 101120 65
2002-04-11 07:56:19 51°21.857 3°6.714 15.8 224 6.9 101120 65
2002-04-11 07:56:24 51°21.865 3°6.738 16.7 224 6.9 101120 66
2002-04-11 07:56:28 51°21.87 3°6.759 16.2 227 6.9 101120 66
2002-04-11 07:56:33 51°21.877 3°6.782 16 224 6.9 101130 67
2002-04-11 07:56:39 51°21.885 3°6.812 16.7 229 6.9 101130 67
2002-04-11 07:56:44 51°21.893 3°6.836 16.2 225 6.9 101120 66
2002-04-11 07:56:49 51°21.899 3°6.861 16.4 230 6.9 101120 66
2002-04-11 07:56:53 51°21.905 3°6.88 15.9 316 6.9 101120 67
2002-04-11 07:56:59 51°21.913 3°6.91 16.9 227 6.9 101120 67
2002-04-11 07:57:04 51°21.921 3°6.934 16.4 225 6.9 101110 67
2002-04-11 07:57:09 51°21.927 3°6.959 17.6 228 6.9 101110 67
2002-04-11 07:57:13 51°21.934 3°6.978 16.6 227 6.9 101130 67
2002-04-11 07:57:19 51°21.942 3°7.008 15.8 230 6.9 101130 67
2002-04-11 07:57:24 51°21.95 3°7.032 17.5 226 6.9 101120 68
2002-04-11 07:57:29 51°21.957 3°7.057 15.7 227 6.9 101120 68
2002-04-11 07:57:34 51°21.964 3°7.081 16.1 228 6.9 101110 67
2002-04-11 07:57:39 51°21.971 3°7.106 17.1 225 6.9 101110 67
2002-04-11 07:57:44 51°21.978 3°7.131 16.9 225 6.9 101120 68
2002-04-11 07:57:49 51°21.985 3°7.156 15.8 223 6.9 101120 68
2002-04-11 07:57:54 51°21.993 3°7.18 16.9 223 6.9 101120 66
2002-04-11 07:57:59 51°21.999 3°7.206 15.3 224 6.9 101120 66
2002-04-11 07:58:03 51°22.005 3°7.226 17.3 222 6.9 101120 65
2002-04-11 07:58:09 51°22.014 3°7.256 16.6 223 6.9 101120 65
2002-04-11 07:58:14 51°22.02 3°7.281 15.9 223 6.9 101120 67
2002-04-11 07:58:18 51°22.026 3°7.301 15.4 225 6.9 101120 67
2002-04-11 07:58:24 51°22.034 3°7.331 15.1 223 6.9 101130 65
2002-04-11 07:58:29 51°22.042 3°7.356 16.8 229 6.9 101130 65